TimeCDT,TemperatureF,Dew PointF,Humidity,Sea Level PressureIn,VisibilityMPH,Wind Direction,Wind SpeedMPH,Gust SpeedMPH,PrecipitationIn,Events,Conditions,WindDirDegrees,DateUTC
12:15 AM,63.3,63.3,100,29.60,10.0,Calm,Calm,-,N/A,,Clear,0,2013-06-29 05:15:00
12:35 AM,62.8,62.8,100,29.59,10.0,Calm,Calm,-,N/A,,Clear,0,2013-06-29 05:35:00
12:55 AM,62.6,62.6,100,29.59,7.0,Calm,Calm,-,N/A,,Clear,0,2013-06-29 05:55:00
1:15 AM,62.2,62.2,100,29.59,5.0,WSW,3.5,-,N/A,,Clear,250,2013-06-29 06:15:00
1:35 AM,62.4,62.4,100,29.59,7.0,Calm,Calm,-,N/A,,Clear,0,2013-06-29 06:35:00
1:55 AM,62.4,62.4,100,29.59,4.0,Calm,Calm,-,N/A,,Clear,0,2013-06-29 06:55:00
2:15 AM,61.9,61.9,100,29.59,5.0,Calm,Calm,-,N/A,,Clear,0,2013-06-29 07:15:00
2:35 AM,61.5,61.5,100,29.59,5.0,West,3.5,-,N/A,,Clear,270,2013-06-29 07:35:00
2:55 AM,61.5,61.5,100,29.58,4.0,West,4.6,-,N/A,,Clear,260,2013-06-29 07:55:00
3:15 AM,61.5,61.5,100,29.58,4.0,West,3.5,-,N/A,,Clear,260,2013-06-29 08:15:00
3:35 AM,61.3,61.3,100,29.58,3.0,WSW,4.6,-,N/A,,Scattered Clouds,250,2013-06-29 08:35:00
3:55 AM,61.5,61.5,100,29.58,2.5,WNW,3.5,-,N/A,,Scattered Clouds,290,2013-06-29 08:55:00
4:15 AM,61.3,61.3,100,29.59,3.0,Calm,Calm,-,N/A,,Clear,0,2013-06-29 09:15:00
4:35 AM,61.0,61.0,100,29.59,0.8,Calm,Calm,-,N/A,,Unknown,0,2013-06-29 09:35:00
4:55 AM,60.8,60.8,100,29.59,2.0,WNW,3.5,-,N/A,,Clear,290,2013-06-29 09:55:00
5:15 AM,60.8,60.8,100,29.60,1.8,Calm,Calm,-,N/A,,Unknown,0,2013-06-29 10:15:00
5:35 AM,61.7,61.7,100,29.60,1.8,WNW,3.5,-,N/A,,Unknown,300,2013-06-29 10:35:00
5:55 AM,62.4,62.4,100,29.60,3.0,NW,3.5,-,N/A,,Clear,320,2013-06-29 10:55:00
6:15 AM,63.0,63.0,100,29.60,4.0,NNW,5.8,-,N/A,,Mostly Cloudy,340,2013-06-29 11:15:00
6:35 AM,63.3,63.3,100,29.60,5.0,NNW,4.6,-,N/A,,Overcast,330,2013-06-29 11:35:00
6:55 AM,63.7,63.7,100,29.60,7.0,NNW,5.8,-,N/A,,Overcast,330,2013-06-29 11:55:00
7:15 AM,64.0,64.2,100,29.60,10.0,NNW,6.9,-,N/A,,Overcast,330,2013-06-29 12:15:00
7:35 AM,64.4,63.9,98,29.61,10.0,NW,6.9,-,N/A,,Overcast,320,2013-06-29 12:35:00
7:55 AM,64.6,63.9,98,29.61,10.0,NNW,8.1,-,N/A,,Overcast,330,2013-06-29 12:55:00
8:15 AM,64.9,63.9,96,29.62,10.0,NW,5.8,-,N/A,,Overcast,320,2013-06-29 13:15:00
8:35 AM,65.3,64.0,96,29.62,10.0,NNW,6.9,-,N/A,,Overcast,330,2013-06-29 13:35:00
8:55 AM,65.8,64.4,95,29.62,10.0,NNW,4.6,-,N/A,,Overcast,340,2013-06-29 13:55:00
9:15 AM,66.6,64.8,94,29.62,10.0,North,4.6,-,N/A,,Overcast,350,2013-06-29 14:15:00
9:35 AM,67.5,65.1,92,29.62,10.0,North,5.8,-,N/A,,Mostly Cloudy,350,2013-06-29 14:35:00
9:55 AM,67.6,64.6,90,29.62,10.0,North,4.6,-,N/A,,Mostly Cloudy,350,2013-06-29 14:55:00
10:15 AM,68.0,64.6,89,29.62,10.0,Calm,Calm,-,N/A,,Mostly Cloudy,0,2013-06-29 15:15:00
10:35 AM,68.0,64.6,89,29.62,10.0,Calm,Calm,-,N/A,,Overcast,0,2013-06-29 15:35:00
10:55 AM,68.0,64.8,89,29.62,10.0,NNW,3.5,-,N/A,,Overcast,340,2013-06-29 15:55:00
11:15 AM,68.4,65.1,89,29.62,10.0,North,3.5,-,N/A,,Overcast,10,2013-06-29 16:15:00
11:35 AM,69.1,65.7,89,29.62,10.0,North,4.6,-,N/A,,Overcast,350,2013-06-29 16:35:00
11:55 AM,69.8,65.7,87,29.62,10.0,North,4.6,-,N/A,,Overcast,10,2013-06-29 16:55:00
12:15 PM,70.7,65.5,83,29.62,10.0,NE,6.9,-,N/A,,Overcast,50,2013-06-29 17:15:00
12:35 PM,70.9,65.8,84,29.63,10.0,NE,6.9,-,N/A,,Overcast,40,2013-06-29 17:35:00
12:55 PM,71.1,64.9,81,29.62,10.0,NE,5.8,-,N/A,,Mostly Cloudy,50,2013-06-29 17:55:00
1:15 PM,72.0,63.9,76,29.62,10.0,Calm,Calm,-,N/A,,Scattered Clouds,0,2013-06-29 18:15:00
1:35 PM,72.9,63.1,71,29.62,10.0,East,3.5,-,N/A,,Scattered Clouds,100,2013-06-29 18:35:00
1:55 PM,73.2,64.0,73,29.62,10.0,Calm,Calm,-,N/A,,Scattered Clouds,0,2013-06-29 18:55:00
2:15 PM,73.4,64.0,72,29.62,10.0,Calm,Calm,-,N/A,,Scattered Clouds,0,2013-06-29 19:15:00
2:35 PM,74.7,64.8,71,29.61,10.0,Calm,Calm,-,N/A,,Scattered Clouds,0,2013-06-29 19:35:00
2:55 PM,73.4,65.5,76,29.62,10.0,NNW,11.5,-,N/A,,Overcast,340,2013-06-29 19:55:00
3:15 PM,70.2,66.9,89,29.63,10.0,NNW,10.4,-,N/A,,Overcast,340,2013-06-29 20:15:00
3:35 PM,68.9,66.2,91,29.64,10.0,NNW,11.5,18.4,N/A,,Overcast,330,2013-06-29 20:35:00
3:55 PM,67.6,66.2,95,29.65,7.0,North,10.4,-,N/A,,Overcast,350,2013-06-29 20:55:00
4:15 PM,67.3,65.7,95,29.65,10.0,North,16.1,-,N/A,,Overcast,360,2013-06-29 21:15:00
4:35 PM,67.1,64.9,93,29.65,10.0,North,12.7,-,N/A,,Mostly Cloudy,10,2013-06-29 21:35:00
4:55 PM,66.7,64.6,93,29.66,10.0,North,9.2,-,N/A,,Mostly Cloudy,10,2013-06-29 21:55:00
5:15 PM,66.0,64.4,94,29.66,10.0,NNE,6.9,-,N/A,,Mostly Cloudy,20,2013-06-29 22:15:00
5:35 PM,65.7,64.8,97,29.65,7.0,North,8.1,-,N/A,,Overcast,360,2013-06-29 22:35:00
5:55 PM,65.5,64.8,98,29.65,5.0,North,8.1,-,N/A,,Overcast,350,2013-06-29 22:55:00
6:15 PM,64.9,64.4,98,29.66,7.0,North,6.9,-,N/A,,Overcast,360,2013-06-29 23:15:00
6:35 PM,64.9,64.4,98,29.67,7.0,North,8.1,-,N/A,,Overcast,350,2013-06-29 23:35:00
6:55 PM,65.3,64.8,98,29.67,10.0,North,9.2,-,N/A,,Mostly Cloudy,350,2013-06-29 23:55:00
7:15 PM,65.5,65.1,99,29.67,10.0,North,8.1,-,N/A,,Mostly Cloudy,350,2013-06-30 00:15:00
7:35 PM,65.3,64.9,99,29.68,10.0,NNW,10.4,-,N/A,,Scattered Clouds,340,2013-06-30 00:35:00
7:55 PM,65.3,64.8,98,29.68,10.0,North,8.1,-,N/A,,Mostly Cloudy,350,2013-06-30 00:55:00
8:15 PM,65.3,64.9,99,29.69,10.0,North,3.5,-,N/A,,Overcast,350,2013-06-30 01:15:00
8:35 PM,65.3,65.1,99,29.69,10.0,North,4.6,-,N/A,,Overcast,360,2013-06-30 01:35:00
8:55 PM,65.3,64.9,99,29.69,10.0,North,4.6,-,N/A,,Overcast,350,2013-06-30 01:55:00
9:15 PM,65.3,65.1,99,29.70,7.0,North,4.6,-,N/A,,Overcast,360,2013-06-30 02:15:00
9:35 PM,65.3,65.3,100,29.70,7.0,North,4.6,-,N/A,,Overcast,10,2013-06-30 02:35:00
9:55 PM,65.3,65.3,100,29.71,7.0,North,4.6,-,N/A,,Overcast,10,2013-06-30 02:55:00
10:15 PM,65.5,65.5,100,29.71,5.0,NNE,4.6,-,N/A,,Overcast,20,2013-06-30 03:15:00
10:35 PM,65.3,65.3,100,29.71,5.0,NE,4.6,-,N/A,,Overcast,40,2013-06-30 03:35:00
10:55 PM,65.1,65.1,100,29.72,10.0,NE,4.6,-,N/A,,Overcast,50,2013-06-30 03:55:00
11:15 PM,64.2,64.2,100,29.72,10.0,NNE,5.8,-,N/A,,Mostly Cloudy,30,2013-06-30 04:15:00
11:35 PM,63.7,63.7,100,29.73,10.0,NNE,5.8,-,N/A,,Scattered Clouds,20,2013-06-30 04:35:00
11:55 PM,63.5,63.5,100,29.73,10.0,North,5.8,-,N/A,,Mostly Cloudy,10,2013-06-30 04:55:00